Location: Niles Junction
(37.5763°N, 121.9714°W)
Time: 04:35:13
(UTC+00:00)

DELTA 2 R/B (1) - Pass Details

Date: 29 October 2020
Orbit: 790 x 803 km, 39.6° (Epoch: 23 November)

Event Time Altitude Azimuth Distance (km) Brightness Sun altitude
Exits shadow 12:19:28 39° 185° (S) 1,171 4.3 -26.5°
Drops below altitude 10° 12:23:50 10° 139° (SE) 2,364 6.5 -25.6°
Sets 12:26:26 0° 133° (SE) 3,293 7.4 -25.1°
